Home > Weather > Changchun > Past weeks

Flag for China Past Weather in Changchun, Jilin, China — Yesterday and Last 2 Weeks

Now
70 °F

Passing clouds.


Feels Like: 70 °F
Forecast: 55 / 72 °F
Wind: 8 mph from West

Location: Changchun Airport

Current Time: May 29, 2016 at 5:44:12 PM

Latest Report: May 29, 2016 at 5:00 PM


Visibility: N/A

Pressure: 29.65 "Hg

Humidity: 13%

Dew Point: 18 °F

Location of ChangchunLocation

Past Weather in Changchun — Graph

°F

Changchun Temperature Yesterday

Maximum temperature yesterday: 86 °F (at 1:00 PM)
Minimum temperature yesterday: 61 °F (at 3:00 AM)
Average temperature yesterday: 75 °F

High & Low Weather Summary for the Past Weeks

 TemperatureHumidityPressure
High86 °F (May 28, 1:00 PM)88% (May 14, 10:00 PM)30.24 "Hg (May 14, 10:00 PM)
Low41 °F (May 16, 1:00 AM)13% (May 19, 4:00 PM)29.39 "Hg (May 24, 2:00 PM)
Average64 °F46%29.78 "Hg
* Reported May 14 4:00 PM — May 29 4:00 PM, Changchun, Weather by CustomWeather, © 2016

Note: Actual official high and low records may vary slightly from our data, if they occured in-between our weather recording intervals... More about our weather records

Advertising

Changchun Weather History for the Previous 24 Hours

Scroll right to see more
 ConditionsComfort  
Time TempWeatherWind HumidityBarometerVisibility
4:00 PM
Sun, May 29
70 °FPassing clouds.13 mph13%29.65 "HgN/A
3:00 PM70 °FPassing clouds.8 mph13%29.65 "HgN/A
2:00 PM70 °FPassing clouds.13 mph13%29.65 "HgN/A
1:00 PM70 °FPassing clouds.13 mph13%29.65 "HgN/A
12:00 PM70 °FPassing clouds.10 mph13%29.68 "HgN/A
11:00 AM70 °FPassing clouds.8 mph20%29.68 "HgN/A
10:00 AM68 °FPassing clouds.6 mph24%29.71 "HgN/A
9:00 AM66 °FPassing clouds.6 mph24%29.71 "HgN/A
8:00 AM64 °FPassing clouds.8 mph32%29.71 "HgN/A
7:00 AM63 °FPassing clouds.3 mph30%29.68 "HgN/A
6:00 AM63 °FPassing clouds.6 mph32%29.68 "HgN/A
5:00 AM64 °FPassing clouds.6 mph28%29.68 "HgN/A
4:00 AM64 °FPassing clouds.8 mph34%29.65 "HgN/A
3:00 AM68 °FPassing clouds.13 mph35%29.59 "HgN/A
2:00 AM70 °FClear.17 mph33%29.59 "Hg10 mi
1:00 AM66 °FClear.8 mph35%29.59 "Hg10 mi
12:00 AM68 °FClear.6 mph33%29.56 "Hg10 mi
11:00 PM
Sat, May 28
70 °FPassing clouds.6 mph29%29.56 "HgN/A
10:00 PM73 °FClear.22 mph25%29.53 "Hg10 mi
9:00 PM75 °FClear.17 mph24%29.53 "Hg10 mi
8:00 PM75 °FClear.20 mph25%29.53 "Hg10 mi
7:00 PM77 °FSunny.17 mph30%29.53 "Hg10 mi
6:00 PM81 °FSunny.20 mph23%29.50 "Hg10 mi
5:00 PM82 °FSunny.22 mph23%29.50 "Hg10 mi
Weather by CustomWeather, © 2016

See weather overviewHow to use our weather pages